Preview of NWS' New Version of Forecast
This preview is not operational and should not be used for support decisions.

Regional Weather Roundup (RWR)

Issued by National Weather Service (NWS)

                            
000
ASUS44 KJAN 190710
RWRMS 

MISSISSIPPI HOURLY WEATHER ROUNDUP
NATIONAL WEATHER SERVICE JACKSON MS
200 AM CDT THU SEP 19 2019

NOTE: "FAIR: INDICATES FEW OR NO CLOUDS BELOW 12,000 FEET WITH NO
SIGNIFICANT WEATHER AND/OR OBSTRUCTIONS TO VISIBILITY.

MSZ001>002-007>008-010>013-018>021-025>028-034>036-190800-
NORTHWEST MISSISSIPPI
  
CITY           SKY/WX    TMP DP  RH WIND       PRES   REMARKS
BATESVILLE       N/A     72  70  94 CALM      29.98R                  
CLARKSDALE       N/A     72  70  94 CALM      29.97R                  
CLEVELAND      FAIR      76  70  82 CALM      29.97S                  
GREENWOOD      FAIR      73  69  87 NE3       29.97S                  
GREENVILLE     FAIR      76  71  85 CALM      29.95F                  
OLIVE BRANCH   CLEAR     75  68  78 CALM      30.02R                  
OXFORD         FAIR      72  68  88 CALM      30.00S                  
TUNICA           N/A     72  68  88 E3        29.98S FOG              
WINONA         FAIR      71  71  99 CALM      29.98S                  
$$

MSZ003>006-009-014>017-022>024-029>033-037>039-190800-
NORTHEAST MISSISSIPPI
  
CITY           SKY/WX    TMP DP  RH WIND       PRES   REMARKS
ABERDEEN       FAIR      68  52  56 CALM      30.00R                  
COLUMBUS AFB   FAIR      74  69  81 CALM      29.97R                  
CORINTH        FAIR      68  68 100 CALM      30.00R FOG              
GOLDN TRIANGLE FAIR      78  69  73 E9        29.98R                  
STARKVILLE       N/A     68  66  94 CALM      29.99R                  
TUPELO         FAIR      73  69  87 N5        29.99R                  
$$

MSZ040-058-190800-
CENTRAL MISSISSIPPI
  
CITY           SKY/WX    TMP DP  RH WIND       PRES   REMARKS
JACKSON INTL   FAIR      74  69  85 E3        29.98S                  
JACKSON HAWKNS MOCLDY    75  70  84 CALM      29.98S                  
MADISON        FAIR      72  72 100 CALM      29.99S                  
MERIDIAN KEY   MOCLDY    76  73  91 W7        29.96F                  
MERIDIAN NAS   FAIR      76  68  76 N3        29.97S                  
RAYMOND        FAIR      72  72 100 CALM      29.97S                  
VICKSBURG VKS  SUNNY     72  72 100 CALM      29.96S                  
$$

MSZ059>079-190800-
SOUTH MISSISSIPPI
  
CITY           SKY/WX    TMP DP  RH WIND       PRES   REMARKS
BROOKHAVEN     FAIR      70  68  94 CALM      29.99S                  
HATTIESBURG    FAIR      75  71  87 CALM      29.97F                  
LAUREL         SUNNY     76  71  86 CALM      29.96F                  
MCCOMB         FAIR      72  69  90 CALM      29.97S                  
NATCHEZ        FAIR      72  70  93 CALM      29.96F                  
PINE BELT        N/A    N/A N/A N/A MISG        N/A                   
$$

MSZ080>082-190800-
COASTAL MISSISSIPPI
  
CITY           SKY/WX    TMP DP  RH WIND       PRES   REMARKS
BILOXI         FAIR      78  73  84 CALM      29.95S                  
PASCAGOULA     NOT AVBL                                               
GULFPORT       NOT AVBL                                               
$$

LAZ007>009-015>016-023>026-190800-
NORTHEAST LOUISIANA
  
CITY           SKY/WX    TMP DP  RH WIND       PRES   REMARKS
BASTROP        FAIR      71  70  98 CALM      29.97S                  
TALLULAH/VBURG FAIR      72  69  90 CALM      29.96S                  
VIDALIA        FAIR     N/A N/A N/A CALM      29.95R                  
$$